Zurück zum Katalog

CZ-6A DEB

AktivPO
NORAD 55222·DEBRIS·🇨🇳 China

Gestartet Nov 11, 2022 von Taiyuan Satellite Launch Center

Loading…

Nächste Überflüge (nächste 24 Stunden)

TLE

AktuellSource: Space-Track

Epoche: Sep 14, 2026, 10:19 UTC

1 55222U 22151WP  26257.43025146  .00007578  00000-0  11243-2 0  9994
2 55222  98.6241 328.5905 0063889   6.6024 353.6010 14.73985341197978

Verfolge CZ-6A DEB in Echtzeit mit AllMySat

Download on the App Store